Theta_e
347 345 341 343 346 347 348 346 341 340 342 344 344 343 342 345 345 345 344 342 342 342 341 341 340 338 338 340 341 341 340 339 341 341 331 328 328 336 336 338 335 332 336
347 346 342 344 345 347 347 346 339 342 345 343 344 344 344 344 344 341 340 339 340 340 340 339 337 336 336 337 339 341 341 340 340 344 340 333 329 329 333 332 328 324 329
346 344 344 344 345 347 345 343 343 344 344 344 343 343 344 343 341 340 339 338 337 337 337 336 335 334 333 333 335 337 339 340 340 342 346 346 339 334 330 327 326 324 325
344 343 344 344 344 346 342 344 344 344 343 343 343 344 346 343 341 340 339 339 338 336 336 334 334 333 332 331 330 332 337 340 344 343 346 347 344 337 336 332 331 332 330
343 344 344 344 344 345 345 345 344 344 343 343 344 346 343 340 339 337 336 335 336 335 334 332 331 330 329 329 328 328 332 338 341 345 349 347 346 339 338 343 338 340 342
345 345 344 345 346 346 345 345 344 345 344 344 345 345 341 339 338 336 334 333 332 332 331 330 330 330 330 329 329 332 335 340 342 345 344 347 346 340 339 342 345 342 333
345 343 344 345 344 344 344 345 345 344 345 344 346 342 339 337 336 334 332 331 330 331 333 334 334 333 333 332 334 334 336 337 341 344 345 348 339 339 340 339 338 337 334
342 342 343 343 344 344 344 344 344 344 344 344 345 340 337 336 333 331 331 333 338 340 340 340 339 338 337 336 338 339 340 340 345 346 346 348 339 337 340 341 340 339 338
341 342 343 344 344 343 344 344 344 344 344 341 339 337 335 332 331 331 339 340 341 341 340 340 339 338 337 337 337 340 340 340 334 340 348 346 341 338 338 340 341 340 340
341 340 341 342 343 344 340 338 341 342 341 337 336 334 331 330 332 341 345 341 341 340 338 337 336 336 336 336 337 339 339 342 343 348 349 342 341 341 339 338 340 340 339
343 339 340 340 341 340 340 338 336 336 335 335 333 330 329 335 345 344 346 341 340 340 339 339 338 337 339 342 341 340 341 343 345 345 346 342 341 340 342 339 339 340 340
339 337 340 339 340 340 342 341 338 338 333 333 340 343 340 341 345 346 344 341 342 341 342 343 342 341 343 345 345 342 343 342 340 346 345 342 338 336 339 341 340 339 340
337 338 337 341 340 340 344 343 342 342 340 342 345 345 343 341 339 338 338 343 346 344 343 346 341 344 342 340 339 337 339 338 337 342 342 341 340 338 336 337 341 341 340
336 336 338 340 340 339 339 340 339 342 340 342 343 343 338 340 338 340 342 346 347 343 340 340 340 341 341 341 340 339 339 338 340 336 341 341 341 341 340 342 340 342 342
335 336 337 341 341 342 341 339 339 339 340 341 341 341 342 345 347 346 346 344 343 342 341 340 340 340 341 341 342 343 343 343 343 343 345 344 343 342 344 345 345 342 348
334 335 336 338 339 341 341 341 341 340 340 340 341 342 343 345 346 345 345 344 342 340 339 338 338 338 339 340 340 341 341 341 341 343 347 347 345 344 345 344 348 349 349
335 334 336 338 341 341 344 345 342 340 340 341 341 339 338 339 340 342 341 340 336 336 335 334 334 334 334 335 336 336 335 336 338 344 346 343 339 336 343 343 344 344 345
337 339 340 342 345 345 345 344 342 341 340 339 336 334 332 332 335 336 336 333 332 331 330 328 326 328 328 325 323 323 321 328 337 342 342 338 333 330 333 336 339 341 342
339 340 341 342 343 343 342 341 339 338 336 335 333 331 329 327 328 330 330 328 326 325 323 322 322 321 320 318 318 317 322 330 339 335 330 326 322 322 322 321 324 329 335
340 339 340 341 341 339 340 338 336 336 333 331 328 325 324 322 323 326 324 322 319 320 318 317 321 318 319 315 317 322 333 337 335 333 329 321 318 318 316 318 319 318 319
340 340 340 339 338 338 337 337 335 334 329 325 322 320 319 319 319 320 318 317 316 314 315 315 319 319 315 312 319 323 332 333 331 326 320 315 314 314 313 314 316 318 319
339 339 339 338 336 336 335 336 335 331 327 322 319 317 316 316 316 316 315 314 314 313 311 312 313 317 313 310 316 319 337 333 323 319 315 312 313 313 312 313 315 314 317
338 338 338 338 335 335 336 333 327 323 321 320 317 315 313 314 313 314 313 312 310 311 310 310 311 311 314 311 312 317 323 325 321 316 314 311 312 312 311 312 313 312 313
335 336 336 335 333 333 330 330 327 325 323 322 317 314 311 311 311 311 311 309 308 310 309 310 310 310 310 311 312 311 311 311 316 323 313 310 311 311 310 311 312 311 311
333 333 333 333 330 329 329 328 326 326 321 318 315 313 311 311 310 311 311 311 310 309 309 309 310 309 310 310 309 310 311 310 309 314 315 311 308 309 310 310 311 310 310
330 329 329 329 328 326 326 326 326 324 320 315 314 313 311 310 309 309 311 310 309 309 308 308 308 308 308 309 309 308 308 309 309 309 310 310 308 307 310 309 309 308 307
Wind_Speed
20 19 18 16 16 15 14 13 15 17 18 17 17 18 18 19 18 19 19 19 18 17 16 15 15 15 16 15 14 12 11 11 10 13 14 16 15 14 14 9 13 11 12
23 20 20 17 15 16 14 15 17 19 17 17 18 17 16 17 17 16 17 17 16 15 15 14 14 13 13 13 12 11 9 6 5 7 9 13 14 14 12 14 9 12 12
24 21 19 18 16 15 15 18 19 17 16 16 16 15 16 16 15 15 15 14 14 13 12 12 11 11 11 11 10 9 7 5 3 3 6 5 7 13 11 10 11 12 12
23 22 19 18 17 17 18 17 18 16 15 15 14 14 14 13 12 12 12 12 11 10 10 10 9 9 9 9 8 7 6 3 2 4 4 8 7 11 10 11 10 11 11
23 21 21 19 17 17 17 18 17 15 14 13 13 12 12 11 10 9 9 9 9 8 7 7 7 7 7 7 6 6 4 2 4 4 4 14 8 9 9 9 10 11 9
25 20 22 20 18 18 18 18 16 14 13 12 11 10 10 9 7 7 7 7 6 6 6 6 6 6 6 6 5 5 5 3 6 5 13 16 7 7 7 8 8 5 5
25 21 21 19 18 18 19 17 15 14 12 10 10 9 8 7 6 5 5 5 5 5 5 5 5 5 5 5 5 5 5 5 10 8 10 8 5 6 6 7 6 5 5
24 22 21 19 18 17 17 18 16 13 11 10 9 7 6 4 4 4 5 5 5 5 4 4 4 4 4 5 5 6 5 7 14 11 9 8 7 6 5 6 5 5 4
24 20 20 18 17 16 16 15 13 12 11 9 8 6 5 4 4 4 4 4 4 4 4 4 4 4 3 4 5 5 5 3 13 4 5 9 6 5 4 4 4 4 4
25 21 19 18 17 15 15 14 13 10 8 8 6 4 4 5 5 4 3 5 3 4 5 5 5 3 1 1 3 6 3 4 11 10 4 8 7 5 3 3 3 4 4
18 20 21 19 17 17 15 13 12 11 8 6 5 3 5 6 4 6 4 4 0 2 2 3 4 4 4 5 5 6 4 6 6 9 15 8 7 6 2 2 4 5 5
21 21 19 20 17 20 17 14 11 9 8 7 5 5 4 9 8 12 7 6 2 0 1 1 3 5 8 13 14 10 13 10 12 15 10 6 6 5 2 3 5 6 6
22 19 19 20 18 17 15 10 14 15 12 8 7 5 6 5 6 8 11 12 5 4 4 4 11 8 5 10 12 14 11 13 15 8 7 5 6 5 5 4 5 8 9
23 20 20 18 18 17 17 15 17 17 12 10 11 8 5 4 4 7 6 2 7 5 5 7 10 10 8 9 9 10 9 10 15 15 8 8 7 6 4 3 5 7 10
23 21 23 20 18 10 6 13 8 10 8 11 8 5 6 6 2 2 5 3 6 6 7 6 8 8 8 10 12 8 8 9 11 10 11 3 1 1 3 3 4 6 7
18 19 17 18 17 11 10 10 9 8 8 6 6 4 1 1 2 2 1 1 2 2 5 7 9 8 10 10 12 8 9 9 9 6 4 11 10 7 5 10 14 12 4
17 19 20 18 16 12 11 9 8 8 6 7 4 3 2 2 2 5 1 2 2 1 5 6 6 8 10 10 12 8 8 9 3 2 11 14 14 14 11 10 9 9 12
18 14 16 15 15 10 13 10 9 9 9 8 6 4 4 4 2 3 2 0 4 4 5 4 6 8 6 8 9 8 8 3 2 7 0 7 6 7 9 10 8 7 8
18 16 14 11 16 12 15 11 10 11 9 9 7 5 4 3 3 7 2 3 4 5 6 4 3 6 6 7 7 9 4 1 10 11 12 13 14 16 15 15 12 9 9
20 19 16 12 21 17 14 12 10 11 10 9 7 4 4 2 2 7 3 4 5 3 7 7 3 3 3 8 9 4 5 8 4 9 7 9 10 9 11 13 14 13 13
21 22 19 19 20 20 17 14 15 14 12 7 4 5 3 3 2 7 5 6 8 4 8 10 3 3 5 10 7 7 9 7 8 12 10 8 10 10 12 11 10 10 6
21 21 21 18 20 16 16 14 13 17 12 11 8 6 4 4 6 4 7 4 9 5 5 8 13 8 7 13 7 4 5 8 10 8 11 10 9 8 10 9 10 10 12
21 20 24 19 22 17 15 15 15 15 12 10 6 8 6 6 7 7 7 9 7 9 9 7 8 12 7 10 13 5 3 3 4 10 11 10 9 8 8 7 8 9 10
21 18 19 21 18 16 14 14 13 10 12 12 12 10 7 7 7 8 8 8 10 9 10 9 9 10 11 11 6 14 13 12 4 3 13 15 9 6 8 7 7 10 8
23 21 16 17 19 14 16 10 16 8 18 15 13 12 9 9 8 8 9 9 10 11 12 10 10 13 10 11 11 9 7 14 14 4 2 11 11 11 5 6 7 8 8
23 19 16 14 14 14 11 9 11 12 15 16 13 11 12 10 9 9 9 10 11 9 9 9 10 11 11 9 11 14 17 10 14 9 3 10 13 10 2 8 9 9 7
Wind_Direction
122 126 125 122 120 119 115 111 106 105 105 101 102 98 95 97 97 95 91 87 85 82 80 76 70 67 66 62 62 60 66 72 81 80 84 89 92 91 79 83 81 86 87
131 131 128 121 124 121 119 115 108 102 104 105 105 106 106 104 97 94 89 85 81 81 79 74 68 62 62 59 58 56 60 80 96 96 96 92 95 91 92 93 104 88 88
128 129 127 126 124 125 127 119 113 111 111 111 112 113 109 103 99 92 86 80 79 78 75 71 66 63 60 56 54 49 53 65 105 136 118 107 102 89 89 87 85 83 82
129 130 130 131 131 128 121 118 117 116 118 117 118 113 106 102 97 92 87 82 77 74 69 67 61 56 52 48 41 39 43 59 101 168 181 161 122 92 86 90 90 89 84
130 131 136 135 133 129 126 128 123 122 122 124 119 114 111 107 100 91 85 80 77 72 66 60 51 45 38 34 25 19 16 336 317 324 246 170 154 83 84 100 97 88 104
130 132 137 137 134 134 133 130 130 125 123 124 121 119 116 111 99 89 81 77 73 68 57 45 42 33 25 17 9 13 25 10 344 7 113 119 149 85 98 113 157 146 112
127 137 138 140 140 139 140 140 135 133 129 133 129 127 124 118 105 87 74 62 52 49 40 30 17 8 6 3 345 348 4 355 351 357 121 142 101 92 118 130 141 141 128
131 139 139 140 141 142 146 148 145 141 145 141 139 137 131 121 106 89 71 53 36 24 8 0 348 347 349 350 338 340 359 7 7 300 135 144 76 90 118 135 139 141 145
136 139 143 146 147 149 149 151 152 152 157 158 154 151 146 134 108 88 72 50 34 23 12 9 356 2 8 17 360 337 1 16 85 179 190 142 91 83 111 128 149 159 164
141 147 149 152 153 153 156 162 164 167 169 168 168 163 160 163 143 119 112 45 40 54 57 48 37 19 44 58 353 345 352 285 248 260 198 109 103 82 101 141 164 170 172
146 158 157 158 161 162 164 173 178 182 182 183 174 155 200 220 209 180 177 271 24 56 65 52 9 323 284 274 289 328 291 291 277 161 161 128 97 74 112 195 202 198 195
157 166 156 166 165 171 165 181 173 187 185 187 186 205 251 258 205 170 250 257 262 47 206 353 318 321 302 301 266 301 307 320 320 179 131 112 78 53 24 226 227 226 224
169 166 168 153 167 167 157 157 180 191 194 195 192 201 244 277 217 245 247 226 215 263 277 278 303 296 335 346 328 323 343 328 336 32 86 82 47 21 352 313 254 241 240
168 170 162 165 178 177 188 169 189 189 176 198 202 197 216 245 217 257 347 170 261 59 3 333 331 4 350 321 305 322 328 325 330 350 14 11 39 49 32 321 278 254 243
165 163 162 158 181 193 146 175 196 186 168 171 136 172 230 253 292 99 4 4 343 352 336 337 326 335 323 309 318 328 316 323 326 341 7 77 11 148 81 23 320 268 252
158 158 164 159 178 182 177 167 181 164 172 130 148 149 143 297 210 66 309 318 344 15 336 324 320 330 315 310 310 307 313 307 308 340 7 41 37 26 31 60 54 51 21
148 166 146 160 164 183 180 155 157 184 164 152 149 109 18 137 85 130 339 67 342 28 329 322 322 319 318 316 319 319 310 304 336 88 64 54 32 40 54 52 51 71 78
149 149 157 170 156 150 152 157 163 156 143 137 130 122 90 59 173 82 78 1 288 13 321 293 338 327 324 322 326 306 309 333 19 74 93 29 78 55 25 40 32 51 89
151 156 169 162 159 165 159 162 154 151 146 142 137 129 76 56 40 88 156 6 28 346 332 321 311 336 336 328 308 288 246 157 78 72 70 49 44 50 50 41 34 45 73
159 162 167 150 153 157 159 156 152 154 147 143 132 106 133 48 53 104 16 19 56 21 5 343 6 350 2 327 294 279 106 94 110 99 82 67 59 52 44 58 36 39 53
169 167 164 162 151 156 160 172 164 165 153 132 114 97 98 81 76 101 92 83 41 38 25 1 323 278 20 342 296 240 140 125 98 103 95 52 61 60 52 58 66 70 51
174 167 177 171 175 175 182 173 194 165 147 135 132 108 96 85 92 85 91 102 88 44 65 29 16 351 52 21 351 276 154 137 113 95 88 65 68 63 50 52 63 69 71
181 182 174 180 165 178 189 163 135 124 133 135 131 116 90 83 86 91 100 93 95 79 53 62 36 18 18 42 30 4 336 96 130 146 120 77 85 82 61 60 71 57 71
179 188 179 171 173 184 162 158 155 157 174 172 144 125 105 102 88 91 88 94 90 72 63 51 45 37 46 37 50 48 62 70 64 134 120 55 60 53 67 55 74 63 70
171 169 175 169 163 176 174 173 165 152 136 129 122 124 123 111 103 96 96 98 89 76 67 58 57 50 49 45 32 26 34 85 47 39 339 6 16 7 54 43 77 59 56
155 152 146 148 152 149 168 154 166 161 143 124 132 152 149 123 103 93 95 91 87 83 77 75 66 65 49 68 59 50 45 38 28 29 355 8 357 335 62 92 56 45 44